Location: Alladorf
(49.9620°N, 11.3790°E)
Time: 21:25:52
(UTC+00:00)

Meteor 1-10 Rocket - Pass Details

Date: 29 November 2020
Orbit: 836 x 910 km, 81.3° (Epoch: 24 January)

Event Time Altitude Azimuth Distance (km) Brightness Sun altitude
Rises 05:11:47 0° 345° (NNW) 3,400 7.0 -14.9°
Reaches altitude 10° 05:14:13 10° 342° (NNW) 2,463 6.3 -14.6°
Maximum altitude 05:19:42 63° 263° (W) 941 4.2 -13.7°
Drops below altitude 10° 05:25:13 10° 184° (S) 2,471 6.8 -12.9°
Sets 05:27:39 0° 181° (S) 3,412 7.6 -12.5°
